Regional Weather Roundup
Issued by NWS

Home | Current Version | Previous Version | Graphics & Text | Print | Product List | Glossary On
Versions: 1 2 3 4 5 6 7 8 9 10 11 12 13 14 15 16 17 18 19 20 21 22 23 24 25 26 27 28 29 30 31 32 33 34 35 36 37 38 39 40 41 42 43 44 45 46 47 48 49 50
000
ASUS45 KTFX 010504
RWRMT
MONTANA HOURLY WEATHER ROUNDUP
NATIONAL WEATHER SERVICE GREAT FALLS MT
1104 PM MDT TUE SEP 30 2014

NOTE: "FAIR" INDICATES FEW OR NO CLOUDS BELOW 12000 FEET WITH NO
SIGNIFICANT WEATHER AND/OR OBSTRUCTIONS TO VISIBILITY.

* THESE STATIONS ARE NOT UNDER NWS QUALITY CONTROL. THEY DO NOT
   REPORT WEATHER SUCH AS PRECIPITATION OR FOG.

MTZ001>007-043-010600-
WEST OF THE DIVIDE
CITY           SKY/WX    TMP DP  RH WIND       PRES   REMARKS
KALISPELL      CLOUDY    45  43  93 CALM      29.93S
MISSOULA       CLOUDY    46  39  77 SW3       30.00R
BUTTE          MOCLDY    41  32  70 NW8       29.98R
MULLAN PASS    MOCLDY    34  34 100 W3        29.99R
* ESSEX        N/A       44  41  89 S5         N/A
* LINCOLN      N/A       42  34  73 SW2G7      N/A
* LOOKOUT PASS N/A       36  36 100 VRB2       N/A
* POLSON       N/A       45  38  77 S1G6       N/A
* RONAN APT    MOCLDY    48  39  71 N/A        N/A
* SEELEY LAKE  N/A       41  39  93 N/A        N/A
* THOMP F APT  PTCLDY    40  26  57 N14G28     N/A   WCI  32
* YAAK HILL    N/A       42  39  89 E1         N/A
$$

MTZ008-052>055-010600-
SOUTHWEST MONTANA
CITY           SKY/WX    TMP DP  RH WIND       PRES   REMARKS
BOZEMAN        MOCLDY    45  34  65 W9        29.93R
DILLON         CLEAR     39  30  70 SE6       29.96R WCI  35
W YELLOWSTONE  LGT RAIN  39  37  93 SW5       29.94R WCI  35
* THREE FORKS  MOCLDY    48  36  63 W8         N/A
* BOULDER HILL N/A       41  23  49 VRB2G12    N/A
* MONIDA PASS  N/A       36  28  73 NW14       N/A   WCI  27
* RAYNOLDS PAS N/A       37  37 100 VRB2       N/A
* WHITEHALL    N/A       43  33  68 W5         N/A
* WISE RIVER   N/A       39  29  67 W6G14      N/A   WCI  35
$$

MTZ009>010-012-014-046-048-049-054-010600-
EAST SLOPES AND CENTRAL MONTANA
CITY           SKY/WX    TMP DP  RH WIND       PRES   REMARKS
CUT BANK       CLOUDY    43  39  86 W10       29.89F
GREAT FALLS    CLOUDY    45  43  93 NW13      29.90R
HELENA         PTCLDY    48  34  59 W14G21    29.91S
MALMSTROM AFB  MOCLDY    46  43  89 NW9G18    29.91R
* CONRAD       CLOUDY    45  45 100 W7         N/A
* DEARBORN     N/A       49  35  59 SE1        N/A
* EAST GLACIER N/A       38  36  93 NE3        N/A
* MONARCH      N/A       40  37  89 NW17G22    N/A   WCI  31
* PENDROY      N/A       41  40  96 N9         N/A
* ROGERS PASS  N/A       38  33  82 SE4G12     N/A
* SAINT MARY   N/A       39  38  96 E1         N/A
* SWEET GRASS  N/A       43  43 100 W17G22     N/A
$$

MTZ011-013-016-021-035-040-045-047-050-051-010600-
NORTH CENTRAL MONTANA
CITY           SKY/WX    TMP DP  RH WIND       PRES   REMARKS
HAVRE          LGT RAIN  48  45  89 W14       29.80R
LEWISTOWN      CLOUDY    46  45  96 NW16G21   29.84R
* DENTON       N/A       47  45  93 NW14G20    N/A
* JUDITH GAP   N/A       44  43  96 NW14G23    N/A
* LOMA         N/A       48  46  93 W9G18      N/A
$$

MTZ017>020-022>027-061-062-010600-
NORTHEAST MONTANA
CITY           SKY/WX    TMP DP  RH WIND       PRES   REMARKS
GLASGOW        CLOUDY    54  48  80 NW13      29.61R
GLENDIVE       CLOUDY    54  50  86 W16       29.58S
JORDAN         CLOUDY    54  52  93 W12       29.67R
SIDNEY         CLOUDY    55  54  96 W13       29.52F
WOLF POINT     CLOUDY    55  52  90 W14       29.56R
* BEAVER HILL  N/A       53  52  96 N/A        N/A
* CIRCLE       N/A       54  52  93 W9G17      N/A
* LINDSAY DVD  N/A       51  50  96 W16G24     N/A
* NAVAJO       N/A       53  51  93 NW17G24    N/A
* SACO         N/A       56  49  77 W7         N/A
$$

MTZ028>042-056>058-010600-
SOUTHCENTRAL AND SOUTHEAST MONTANA
CITY           SKY/WX    TMP DP  RH WIND       PRES   REMARKS
BAKER          CLOUDY    54  52  93 W25G33    29.61R
BILLINGS       MOCLDY    54  41  62 NW22      29.79R
LIVINGSTON     MOCLDY    46  37  71 W9        29.89R
MILES CITY     CLOUDY    57  48  72 NW14      29.66R
* LAUREL APT   CLOUDY    54  37  53 W7         N/A
* ROUNDUP APT  MOCLDY    52  39  61 W14        N/A
* ALZADA       N/A       53  48  83 SW9        N/A
* HYSHAM       N/A       52  44  74 W12G19     N/A
* LAME DEER    N/A       49  45  86 NW10G20    N/A
* REED POINT   N/A       54  34  47 W17G25     N/A
* ROSCOE HILL  N/A       49  25  39 NW4G13     N/A
$$

REGIONAL REPORTS...DAKOTAS
CITY           SKY/WX    TMP DP  RH WIND       PRES   REMARKS
WILLISTON      CLOUDY    52  48  86 W3        29.49F
DICKINSON      LGT RAIN  54  52  93 W16       29.49S
BEACH          LGT RAIN  54  54 100 W12G21    29.57R VSB 3
CROSBY         N/A      N/A N/A N/A N/A        N/A
TIOGA          CLOUDY    48  48 100 W5        29.50F
WATFORD CITY   CLOUDY    50  50 100 W6        29.48R
BISMARCK       CLOUDY    54  52  93 W17       29.45R
GRAND FORKS    CLOUDY    57  48  72 SE28G33   29.54F
FARGO          LGT RAIN  61  54  78 SE28G37   29.58F
BUFFALO SD     MOCLDY    54  50  86 W14       29.57R
RAPID CITY     MOCLDY    54  45  72 W5        29.70S
$$

REGIONAL REPORTS...WYOMING/IDAHO/WASHINGTON
CITY           SKY/WX    TMP DP  RH WIND       PRES   REMARKS
GILLETTE       CLOUDY    48  45  89 W10       29.77S
SHERIDAN       CLOUDY    52  43  72 NW14      29.79R
CODY           CLOUDY    46  45  96 NE9       29.85R
YELLOWSTONE LA CLOUDY    34  32  92 VRB3      29.98R
SALMON         CLOUDY    45  36  71 W5        30.01R
MULLAN PASS    MOCLDY    34  34 100 W3        29.99S
SAND POINT     FOG       39  39 100 CALM      29.97R VSB 2 1/2
SPOKANE        CLEAR     46  36  68 W3        29.98S
$$

REGIONAL REPORTS...SASKATCHEWAN
CITY           SKY/WX    TMP DP  RH WIND       PRES   REMARKS
SWIFT CURRENT  LGT RAIN  50  48  93 NW22G29   29.61S VSB 2 1/2
REGINA         LGT RAIN  50  48  93 SE6       29.51S

$$




USA.gov is the U.S. government's official web portal to all federal, state and local government web resources and services.